Back to catalog

CZ-6A LOWER FAIRING HALF

AlivePO
NORAD 65547·DEBRIS·🇨🇳 China
This satellite name has not been confirmed by official sources yet.

Launched Sep 6, 2025 from Taiyuan Satellite Launch Center

Loading…

Next Passes (next 24 hours)

TLE

FreshSource: Space-Track

Epoch: Sep 14, 2026, 14:01 UTC

1 65547U 25199D   26257.58467262  .00000142  00000-0  66551-4 0  9999
2 65547  85.9970   3.2194 0001898 117.5207 242.6169 14.12463401 52750

Track CZ-6A LOWER FAIRING HALF in real time with AllMySat

Download on the App Store